Regional Weather Roundup
Issued by NWS Sterling, VA

Home | Current Version | Previous Version | Graphics & Text | Print | Product List | Glossary On
Versions: 1 2 3 4 5 6 7 8 9 10 11 12 13 14 15 16 17 18 19 20 21 22 23 24 25 26 27 28
000
ASUS41 KLWX 241910
RWRLWX

REGIONAL WEATHER ROUNDUP
NATIONAL WEATHER SERVICE BALTIMORE MD/WASHINGTON DC
300 PM EDT FRI MAR 24 2017

Note: "FAIR" indicates few or no clouds below 12,000 feet
with no significant weather and/or obstructions to visibility.
 TC=TEMPERATURE CELSIUS

 * =Non NWS site. Station does not report precipitation (e.g. rain,
    snow, etc.), thunder, or fog.

DCZ001-MDZ009-015-VAZ040>042-051-053>054-242000-
WASHINGTON METRO

CITY           SKY/WX    TMP DP  RH WIND       PRES   REMARKS
WASHINGTON NAT CLOUDY    55  35  47 S15       30.29F
DULLES         PTSUNNY   54  35  48 S17G23    30.26F
ANDREWS AFB    MOSUNNY   57  32  38 SW12      30.27F
FT BELVOIR     PTSUNNY   56  32  40 S9G18     30.28F
QUANTICO       CLOUDY    59  33  37 W15G29    30.31F
COLLEGE PARK*  MOSUNNY   54  32  43 S8        30.28F
LEESBURG*      MOSUNNY   55  41  58 S13       30.26F
MANASSAS*      MOSUNNY   58  36  43 SW13G18   30.28F

$$

MDZ006>007-011-014-242000-
BALTIMORE METRO

CITY           SKY/WX    TMP DP  RH WIND       PRES   REMARKS
BWI AIRPORT    CLOUDY    55  33  43 S14G23    30.26F
MD SCIENCE CTR   N/A     57  32  38 MISG      30.30F
MARTIN STATE   MOSUNNY   52  39  62 SE14      30.29F
ANNAPOLIS      MOSUNNY   53  34  48 S12       30.29F
FORT MEADE*    SUNNY     55  32  41 S15G21    30.29F

$$

MDZ012-015-019>023-242000-
MARYLAND EASTERN SHORE

CITY           SKY/WX    TMP DP  RH WIND       PRES   REMARKS
OCEAN CITY     SUNNY     51  39  63 S13G20    30.35F
SALISBURY      SUNNY     62  28  27 SW18      30.31F
BAY BRIDGE AP* MOSUNNY   54  30  40 S14G21    30.30F
CAMBRIDGE*     SUNNY     57  28  33 S9G20     30.32F
EASTON*        CLOUDY    57  28  33 SW17G29   30.34F

$$

MDZ017>025-242000-
SOUTHERN MARYLAND

CITY           SKY/WX    TMP DP  RH WIND       PRES   REMARKS
PATUXENT RIVER SUNNY     59  34  39 SW17G23   30.31F
ST INIGOES     SUNNY     58  30  34 SW13      30.31F
LEONARDTOWN*   SUNNY     55  28  35 SW14G24   30.32F

$$

MDZ003>005-242000-
NORTH CENTRAL MARYLAND

CITY           SKY/WX    TMP DP  RH WIND       PRES   REMARKS
FREDERICK*     SUNNY     57  45  62 SW9       30.27F
HAGERSTOWN APT CLOUDY    56  42  59 S10       30.20F
WESTMINSTER*   CLOUDY    59  43  55 S10       30.22F

$$

MDZ501>502-242000-
WESTERN MARYLAND

CITY           SKY/WX    TMP DP  RH WIND       PRES   REMARKS
OAKLAND*       CLOUDY    63  46  55 SW15      30.20F
CUMBERLAND*    MOSUNNY   66  45  45 CALM      30.18F

$$

VAZ025>031-242000-
SHENANDOAH VALLEY

CITY           SKY/WX    TMP DP  RH WIND       PRES   REMARKS
WINCHESTER*    SUNNY     61  37  41 SW9       30.20F
FRONT ROYAL*     N/A    N/A N/A N/A MISG        N/A
LURAY*         CLOUDY    63  37  39 SW14      30.23F
NEW MARKET*    CLOUDY    65  36  34 S12G17    30.22F
STAUNTON*      PTSUNNY   65  37  36 SW20      30.26F
WAYNESBORO*    CLOUDY    66  40  38 W8G18     30.27F

$$

WVZ021-048>050-054>055-242000-
EASTERN WEST VIRGINIA PANHANDLE

CITY           SKY/WX    TMP DP  RH WIND       PRES   REMARKS
MARTINSBURG    SUNNY     61  40  45 S13       30.20F
PETERSBURG*    CLOUDY    77  53  43 W9        30.15F

$$

VAZ036>039-050-242000-
CENTRAL FOOTHILLS

CITY           SKY/WX    TMP DP  RH WIND       PRES   REMARKS
CHARLOTTESVILL MOSUNNY   65  35  33 SW8G20    30.28F
CULPEPER*      MOSUNNY   58  37  45 SW12G17   30.29F
ORANGE*        SUNNY     57  34  41 S14G21    30.30F
GORDONSVILLE*  SUNNY     60  35  39 SW17G24   30.29F
WARRENTON*     PTSUNNY   56  31  37 SW14G23   30.28F

$$

VAZ055>057-242000-
NORTH AND CENTRAL PIEDMONT

CITY           SKY/WX    TMP DP  RH WIND       PRES   REMARKS
FREDERICKSBRG* MOSUNNY   58  35  42 SW15G24   30.30F
STAFFORD*      CLOUDY    57  33  40 S16       30.34F

$$

NCZ024-NYZ072-PAZ021-071-VAZ022-071-242000-
OTHER REGIONAL OBSERVATIONS

CITY           SKY/WX    TMP DP  RH WIND       PRES   REMARKS
NEW YORK CITY  CLOUDY    48  27  44 W9G17     30.23F
PHILADELPHIA   PTSUNNY   56  30  37 SW20      30.27F
PITTSBURGH     CLOUDY    71  48  43 SW13G20   30.09F
ROANOKE        MOSUNNY   66  37  34 SE6       30.33F
RICHMOND       PTSUNNY   66  36  32 SW20G28   30.33F
RALEIGH        PTSUNNY   68  45  43 SW16      30.41F

$$

ANZ530>537-242000-
MARINE OBSERVATIONS

STATION/POSITION TIME  TEMP    WIND        PRES
                       AIR SEA DIR/SP/G
                 (UTC) (F)     (DEG/KT/KT) (MB)
THOMAS PT LIGHT  1900   45 44  170/ 17/ 19   N/A
BALT KEY BRIDGE  1848   53     210/  8/ 11 1025.1F
COVE POINT       1848   45     180/ 15/ 16 1027.2F
LEWISETTA        1848   59 47  240/ 13/ 17 1026.2F
SOLOMONS ISLAND  1848   55 45  210/ 14/ 19   N/A
PINEY POINT      1848          250/  6/  9   N/A

$$





USA.gov is the U.S. government's official web portal to all federal, state and local government web resources and services.